This demonstration page uses our WeatherBlox Daily Observations layout. Learn more.

40.92945, -100.16068

Hourly Observations for December 11, 2015

Temp ( °F °C ) Dew Point ( °F °C ) Humidity (%) Winds ( mph kmh ) Pressure ( in mb ) Visibility ( mi km ) Precip ( " mm )
12:15 am 00:15 Clear 45 7.4 29 -1.9 52 52 SSE 12 19 29.53 1000 10 16.0934 N/A
12:35 am 00:35 Clear 46 8 28 -2 50 50 SSE 8 13 29.56 1001 10 16.0934 N/A
12:55 am 00:55 Clear 47 8.5 28 -2.2 47 47 SSE 8 13 29.53 1000 10 16.0934 N/A
1:15 am 01:15 Clear 47 8.2 28 -2.1 49 49 S 16 26 29.53 1000 10 16.0934 N/A
1:35 am 01:35 Clear 46 7.8 28 -2.3 49 49 E 7 11 29.53 1000 10 16.0934 N/A
1:55 am 01:55 Clear 46 7.5 28 -2.2 51 51 SSE 17 28 29.5 999 10 16.0934 N/A
2:15 am 02:15 Clear 44 6.7 28 -2.1 54 54 SE 8 13 29.53 1000 10 16.0934 N/A
2:35 am 02:35 Clear 43 6.3 28 -2.1 55 55 SE 8 13 29.5 999 10 16.0934 N/A
2:55 am 02:55 Clear 41 4.8 28 -2.2 61 61 SSE 8 13 29.5 999 10 16.0934 N/A
3:15 am 03:15 Clear 39 4 28 -2 65 65 SSE 8 13 29.53 1000 10 16.0934 N/A
3:35 am 03:35 Clear 38 3.5 28 -2.2 67 67 SSE 6 9 29.53 1000 10 16.0934 N/A
3:55 am 03:55 Clear 39 4.1 28 -2.3 63 63 SE 6 9 29.53 1000 10 16.0934 N/A
4:15 am 04:15 Clear 37 3 28 -2.3 68 68 SE 5 7 29.53 1000 10 16.0934 N/A
4:35 am 04:35 Clear 37 2.7 28 -2.4 69 69 SE 6 9 29.5 999 10 16.0934 N/A
4:55 am 04:55 Clear 34 0.9 26 -3.1 75 75 SE 3 6 29.53 1000 10 16.0934 N/A
5:15 am 05:15 Clear 32 -0.2 26 -3.4 79 79 Calm 29.56 1001 10 16.0934 N/A
5:35 am 05:35 Clear 30 -1.2 26 -3.3 86 86 N 6 9 29.56 1001 10 16.0934 N/A
5:55 am 05:55 Clear 29 -1.9 25 -3.7 88 88 N 8 13 29.59 1002 10 16.0934 N/A
6:15 am 06:15 Clear 30 -1.1 27 -3 87 87 N 5 7 29.56 1001 10 16.0934 N/A
6:35 am 06:35 Clear 30 -1.2 27 -2.9 88 88 Calm 29.56 1001 10 16.0934 N/A
6:55 am 06:55 Clear 28 -2.5 24 -4.3 88 88 W 5 7 29.59 1002 10 16.0934 N/A
7:15 am 07:15 Clear 27 -2.8 24 -4.4 89 89 W 5 7 29.59 1002 10 16.0934 N/A
7:35 am 07:35 Clear 28 -2.5 25 -4 90 90 Calm 29.59 1002 10 16.0934 N/A
7:55 am 07:55 Sunny 28 -2 26 -3.5 90 90 W 5 7 29.62 1003 10 16.0934 N/A
8:15 am 08:15 Sunny 29 -1.8 26 -3.5 88 88 W 7 11 29.62 1003 10 16.0934 N/A
8:35 am 08:35 Sunny 31 -0.8 28 -2.5 88 88 W 8 13 29.62 1003 10 16.0934 N/A
8:55 am 08:55 Sunny 34 1 29 -1.6 83 83 WNW 8 13 29.62 1003 10 16.0934 N/A
9:15 am 09:15 Sunny 35 1.8 30 -1 82 82 WNW 10 17 29.62 1003 10 16.0934 N/A
9:35 am 09:35 Sunny 37 2.9 31 -0.4 79 79 WNW 12 19 29.62 1003 10 16.0934 N/A
9:55 am 09:55 Sunny 38 3.6 31 -0.5 75 75 WNW 10 17 29.62 1003 10 16.0934 N/A
10:15 am 10:15 Sunny 40 4.2 32 -0.1 74 74 WNW 13 20 29.62 1003 10 16.0934 N/A
10:35 am 10:35 Sunny 42 5.6 32 0 68 68 WNW 12 19 29.59 1002 10 16.0934 N/A
10:55 am 10:55 Sunny 46 7.8 33 0.7 61 61 WNW 13 20 29.59 1002 10 16.0934 N/A
11:15 am 11:15 Sunny 51 10.3 34 1.2 54 54 WNW 9 15 29.56 1001 10 16.0934 N/A
11:35 am 11:35 Sunny 53 11.8 33 0.5 46 46 NW 13 20 29.56 1001 10 16.0934 N/A
11:55 am 11:55 Sunny 55 12.8 32 -0.1 41 41 NNW 17 28 29.53 1000 10 16.0934 N/A
12:15 pm 12:15 Sunny 56 13.1 31 -0.6 39 39 NW 20 31 29.53 1000 10 16.0934 N/A
12:35 pm 12:35 Sunny 56 13.6 31 -0.4 38 38 NW 21 33 29.53 1000 10 16.0934 N/A
12:55 pm 12:55 Sunny 58 14.5 30 -0.9 35 35 NW 17 28 29.53 1000 10 16.0934 N/A
1:15 pm 13:15 Sunny 58 14.3 30 -1.3 34 34 NW 16 26 29.53 1000 10 16.0934 N/A
1:35 pm 13:35 Sunny 58 14.5 29 -1.4 34 34 NW 15 24 29.53 1000 10 16.0934 N/A
1:55 pm 13:55 Sunny 59 15 30 -1.1 33 33 NW 14 22 29.53 1000 10 16.0934 N/A
2:15 pm 14:15 Sunny 58 14.5 29 -1.5 33 33 NW 15 24 29.53 1000 10 16.0934 N/A
2:35 pm 14:35 Sunny 58 14.6 29 -1.5 33 33 NW 15 24 29.53 1000 10 16.0934 N/A
2:55 pm 14:55 Sunny 57 14.1 29 -1.5 34 34 NNW 14 22 29.53 1000 10 16.0934 N/A
3:15 pm 15:15 Sunny 56 13.2 29 -1.4 37 37 NNW 16 26 29.56 1001 10 16.0934 N/A
3:35 pm 15:35 Sunny 54 12.3 30 -1.1 40 40 NNW 14 22 29.59 1002 10 16.0934 N/A
3:55 pm 15:55 Sunny 53 11.5 29 -1.4 41 41 NNW 13 20 29.62 1003 10 16.0934 N/A
4:15 pm 16:15 Sunny 51 10.7 30 -1.1 44 44 NNW 12 19 29.62 1003 10 16.0934 N/A
4:35 pm 16:35 Sunny 50 9.8 30 -1 47 47 NNW 10 17 29.65 1004 10 16.0934 N/A
4:55 pm 16:55 Sunny 48 8.8 30 -1 51 51 NNW 9 15 29.68 1005 10 16.0934 N/A
5:15 pm 17:15 Clear 46 7.6 30 -1 55 55 NNW 6 9 29.71 1006 10 16.0934 N/A
5:35 pm 17:35 Clear 42 5.6 30 -1 63 63 NNW 8 13 29.74 1007 10 16.0934 N/A
5:55 pm 17:55 Clear 42 5.5 30 -1 63 63 NNW 7 11 29.74 1007 10 16.0934 N/A
6:15 pm 18:15 Clear 40 4.7 30 -1.1 66 66 NNW 5 7 29.74 1007 10 16.0934 N/A
6:35 pm 18:35 Clear 38 3.3 29 -1.5 71 71 NNW 7 11 29.77 1008 10 16.0934 N/A
6:55 pm 18:55 Clear 38 3.4 30 -1.3 72 72 N 7 11 29.8 1009 10 16.0934 N/A
7:15 pm 19:15 Clear 38 3.6 31 -0.7 74 74 NNE 10 17 29.8 1009 10 16.0934 N/A
7:35 pm 19:35 Clear 40 4.5 29 -1.4 66 66 NNE 13 20 29.74 1007 10 16.0934 N/A
7:55 pm 19:55 Clear 39 3.8 29 -1.5 69 69 NNE 12 19 29.74 1007 10 16.0934 N/A
8:15 pm 20:15 Clear 37 3 29 -1.5 73 73 NNE 14 22 29.77 1008 10 16.0934 N/A
8:35 pm 20:35 Clear 37 2.5 29 -1.5 75 75 NNE 12 19 29.77 1008 10 16.0934 N/A
8:55 pm 20:55 Clear 35 1.8 29 -1.7 78 78 NNE 7 11 29.8 1009 10 16.0934 N/A
9:15 pm 21:15 Clear 34 1.3 29 -1.7 81 81 NE 7 11 29.85 1011 10 16.0934 N/A
9:35 pm 21:35 Clear 34 1 29 -1.7 82 82 N 12 19 29.85 1011 10 16.0934 N/A
9:55 pm 21:55 Mostly Cloudy 33 0.8 29 -1.5 85 85 NNE 8 13 29.88 1012 10 16.0934 N/A
10:15 pm 22:15 Cloudy 33 0.8 30 -1.3 86 86 NE 8 13 29.88 1012 10 16.0934 N/A
10:35 pm 22:35 Cloudy 34 1 30 -1.1 86 86 NNE 5 7 29.88 1012 10 16.0934 N/A
10:55 pm 22:55 Cloudy 34 1 30 -1 87 87 NNE 7 11 29.88 1012 10 16.0934 N/A
11:15 pm 23:15 Cloudy 34 1.1 31 -0.7 88 88 NNE 6 9 29.91 1013 10 16.0934 N/A
11:35 pm 23:35 Cloudy 34 1.2 31 -0.8 87 87 NE 9 15 29.91 1013 10 16.0934 N/A
11:55 pm 23:55 Cloudy 34 1.2 31 -0.7 87 87 NNE 8 13 29.91 1013 10 16.0934 N/A

Powered by AerisWeather